Regional Weather Roundup
Issued by NWS Midland/Odessa, TX

Skip options and go directly to product.
Home | Oldest Version | Next Version | Current Version | All | Text Only | Save Text | Print | Product List | Glossary On

Skip product version selection by date and time.   
746
ASUS44 KMAF 232010
RWRMAF
MIDLAND AREA WEATHER ROUNDUP
NATIONAL WEATHER SERVICE MIDLAND TX
300 PM CDT SAT MAY 23 2015

...IN SOUTHWEST TEXAS AND SOUTHEAST NEW MEXICO...

CITY           SKY/WX    TMP DP  RH WIND       PRES   REMARKS
ALPINE         CLOUDY    76  53  44 S16G22    30.03F
ANDREWS        FAIR      82  53  37 S14       29.91F
ARTESIA        SUNNY     84  32  15 SW23G33   29.90F
BIG SPRING     CLOUDY    84  60  43 SE21G32   29.93F
CARLSBAD       SUNNY     88  38  17 SW24G31   29.87F
DRYDEN           N/A     75  57  53 S12       29.95F
FORT STOCKTON  PTSUNNY   83  53  35 S23G35    29.88F
GUAD PASS      SUNNY     79  32  18 SW30G41   29.99F
HOBBS          MOSUNNY   81  54  39 S7        29.93F
MARFA          PTSUNNY   75  55  50 SE24G33   30.00F
MIDLAND AIRPK  PTSUNNY   86  55  35 S15G30    29.90F
MIDLAND INTL   PTSUNNY   85  58  39 S25G33    29.89F
ODESSA         PTSUNNY   85  57  38 S17G31    29.89F
PECOS          CLOUDY    72  54  54 W12G22    29.86R
PRESIDIO       MOCLDY    87  48  26 SW36      29.92R
SEMINOLE       PTSUNNY   82  56  41 SW10G21   29.93F
SNYDER         PTSUNNY   81  66  60 S20G25    29.93S
WINK           TSTM      68  58  70 NW8       29.88R
$$
...OTHER STATIONS IN TEXAS...

CITY           SKY/WX    TMP DP  RH WIND       PRES   REMARKS
ABILENE        PTSUNNY   82  68  62 S21G31    29.93F
AMARILLO       CLOUDY    64  58  80 E17       29.94F
AUSTIN         TSTM      72  71  97 SE10      30.02R FOG
BROWNSVILLE    PTSUNNY   87  73  62 SE20G28   30.00F
CORPUS CHRISTI CLOUDY    81  74  79 S21G31    30.01F
DALLAS FTW     CLOUDY    79  73  82 SE16G25   29.98F
DEL RIO        PTSUNNY   82  71  69 S12       29.94F
EL PASO        MOSUNNY   80  20  10 W16G24    29.94F
HOUSTON INT    CLOUDY    81  75  83 E5        30.06F
LUBBOCK        CLOUDY    78  62  57 S15       29.91F
SAN ANGELO     PTSUNNY   81  67  62 S20G31    29.94F
SAN ANTONIO    TSTM      78  69  73 SE24G32   29.97F
WACO           LGT RAIN  80  73  79 SE18G24   29.99F
WICHITA FALLS  NOT AVBL
$$
...OTHER LOCATIONS IN NEW MEXICO...

CITY           SKY/WX    TMP DP  RH WIND       PRES   REMARKS
ALAMAGORDO     SUNNY     77  19  11 SW17G31   29.97F
ALBUQUERQUE    PTSUNNY   66  26  22 VRB6      29.98F
CANNON AFB     SUNNY     76  45  33 SW15G24   29.93F
CLOVIS         SUNNY     77  46  33 SW24      29.94F
HOLLOMAN AFB   MOSUNNY   78  17  10 SW22G32   29.95F
ROSWELL        SUNNY     84  25  11 SW24G41   29.88S
RUIDOSO        SUNNY     64  19  17 SW31G38   30.05F
SANTA FE       SUNNY     65  23  20 SW16G28   30.00F
TRUTH OR CONSE SUNNY     74  21  13 S17G30    29.93F
TUCUMCARI      SUNNY     78  36  21 SW24G32   29.89F
$$

USA.gov is the U.S. government's official web portal to all federal, state and local government web resources and services.